Location: Dallas
(32.7833°N, 96.8000°W)
Time: 15:32:22
(UTC-05:00)

N. Korean satellite - Visible Passes

Search period start: 27 July 2021 00:00
Search period end: 06 August 2021 00:00
Orbit: 451 x 497 km, 97.2° (Epoch: 26 July)

Date Brightness Start Highest point End Pass type
(mag) Time Alt. Az. Time Alt. Az. Time Alt. Az.
27 Jul 9.1 06:04:16 10° NE 06:07:10 23° E 06:10:00 10° SSE visible
31 Jul 9.6 05:48:37 10° ENE 05:50:27 14° E 05:52:17 10° SE visible
03 Aug 9.3 05:58:44 10° NE 06:01:18 19° E 06:03:50 10° SE visible
